Detroit, MI

6:25 AM EST on February 22, 2017 (GMT -0500)
Detroit Metro Wayne County

Weather History for KDTW - February, 2014

Change the Weather History Date:

Thursday, February 20, 2014

  Actual Average Record
Temperature  
Mean Temperature 36 °F 29 °F  
Max Temperature 45 °F 36 °F 63 °F (2016)
Min Temperature 27 °F 22 °F -13 °F (2015)
Degree Days  
Heating Degree Days 29 36  
Month to date heating degree days 924 755  
Since 1 July heating degree days 4902 4275  
Cooling Degree Days 0 0  
Month to date cooling degree days 0 0  
Year to date cooling degree days 0 0  
Moisture  
Dew Point 32 °F    
Average Humidity 91    
Maximum Humidity 100    
Minimum Humidity 82    
Precipitation  
Precipitation 0.90 in 0.08 in 1.07 in (1891)
Month to date precipitation 2.81 1.40  
Year to date precipitation 5.73 3.36  
Snow  
Snow 1.20 in 0.40 in 8.20 in (2011)
Month to date snowfall 22.7 7.3  
Since 1 July snowfall 78.5 31.0  
Snow Depth 16.00 in    
Sea Level Pressure  
Sea Level Pressure 29.79 in    
Wind  
Wind Speed 6 mph (ENE)    
Max Wind Speed 17 mph    
Max Gust Speed 21 mph    
Visibility 2 miles    
Events Rain , Snow , Thunderstorm    
T = Trace of Precipitation, MM = Missing Value Source: NWS Daily Summary

Daily Weather History Graph

Daily Weather History Graph

Search for Another Location

Airport or City:

Trip Planner

Search our weather history database for the weather conditions in past years. The results will help you decide how hot, cold, wet, or windy it might be!

Date:

Astronomy

Feb. 20, 2014 Rise Set
Actual Time 7:22 AM EST 6:12 PM EST
Civil Twilight 6:54 AM EST 6:40 PM EST
Nautical Twilight 6:21 AM EST 7:13 PM EST
Astronomical Twilight 5:49 AM EST 7:45 PM EST
Moon No Moon Rise 9:58 AM EST (2/20)
Length of Visible Light 11h 46m
Length of Day
10h 49m
Waning Gibbous, 71% of the Moon is Illuminated
Feb 20
Waning Gibbous
Feb 22
Last Quarter
Mar 1
New
Mar 8
First Quarter
Mar 16
Full

Hourly Weather History & Observations

Time (EST) Temp. Windchill Dew Point Humidity Pressure Visibility Wind Dir Wind Speed Gust Speed Precip Events Conditions
12:53 AM 27.0 °F - 25.0 °F 92% 30.08 in 5.0 mi Calm Calm - N/A   Scattered Clouds
1:53 AM 28.9 °F 21.1 °F 26.1 °F 89% 30.09 in 4.0 mi South 8.1 mph - N/A   Mostly Cloudy
2:48 AM 30.2 °F 26.7 °F 26.6 °F 86% 30.07 in 2.5 mi SSE 3.5 mph - N/A   Overcast
2:53 AM 30.0 °F 25.2 °F 28.0 °F 92% 30.09 in 2.5 mi South 4.6 mph - N/A   Overcast
3:53 AM 30.0 °F - 28.0 °F 92% 30.06 in 2.0 mi Calm Calm - N/A   Overcast
4:49 AM 30.2 °F 26.7 °F 28.4 °F 93% 30.01 in 1.8 mi ENE 3.5 mph - N/A   Overcast
4:53 AM 30.9 °F 27.5 °F 28.0 °F 89% 30.03 in 1.8 mi NE 3.5 mph - N/A   Overcast
5:53 AM 30.9 °F 27.5 °F 28.0 °F 89% 30.01 in 1.5 mi East 3.5 mph - N/A   Overcast
6:20 AM 30.2 °F 25.4 °F 28.4 °F 93% 29.98 in 2.0 mi East 4.6 mph - N/A   Overcast
6:53 AM 30.0 °F - 28.0 °F 92% 29.99 in 2.0 mi Calm Calm - N/A   Overcast
7:31 AM 30.2 °F 26.7 °F 26.6 °F 86% 29.98 in 1.5 mi Variable 3.5 mph - N/A   Overcast
7:53 AM 30.9 °F 25.2 °F 27.0 °F 85% 29.97 in 1.5 mi East 5.8 mph - N/A   Overcast
8:12 AM 32.0 °F 26.4 °F 26.6 °F 80% 29.96 in 3.0 mi ENE 5.8 mph - N/A   Overcast
8:53 AM 32.0 °F 25.6 °F 28.0 °F 85% 29.96 in 3.0 mi East 6.9 mph - N/A   Overcast
9:53 AM 34.0 °F 27.2 °F 28.0 °F 79% 29.92 in 3.0 mi ENE 8.1 mph - N/A   Haze
10:40 AM 35.6 °F 29.9 °F 28.4 °F 75% 29.92 in 2.0 mi East 6.9 mph - 0.01 in Snow Light Snow
10:45 AM 35.6 °F 31.7 °F 28.4 °F 75% 29.92 in 1.5 mi East 4.6 mph - 0.01 in Snow , Thunderstorm Light Thunderstorms and Snow
10:53 AM 35.1 °F 31.0 °F 30.0 °F 82% 29.94 in 1.0 mi ENE 4.6 mph - 0.01 in Snow , Thunderstorm Light Thunderstorms and Snow
11:00 AM 33.8 °F 28.6 °F 30.2 °F 87% 29.93 in 0.8 mi ENE 5.8 mph - 0.03 in Snow , Thunderstorm Light Thunderstorms and Snow
11:18 AM 33.8 °F 27.7 °F 30.2 °F 87% 29.89 in 0.2 mi NE 6.9 mph - 0.11 in Snow Snow
11:36 AM 33.8 °F 26.4 °F 32.0 °F 93% 29.87 in 0.5 mi NNE 9.2 mph - 0.21 in Snow Light Snow
11:43 AM 33.8 °F 25.8 °F 30.2 °F 87% 29.85 in 0.8 mi NE 10.4 mph - 0.23 in Snow , Thunderstorm Light Thunderstorms and Snow
11:53 AM 34.0 °F 26.6 °F 32.0 °F 92% 29.86 in 0.8 mi NE 9.2 mph - 0.27 in Snow , Thunderstorm Light Thunderstorms and Snow
12:19 PM 33.8 °F 26.4 °F 32.0 °F 93% 29.81 in 1.5 mi NE 9.2 mph - 0.13 in Rain , Snow Light Rain
12:53 PM 34.0 °F 26.0 °F 32.0 °F 92% 29.81 in 1.5 mi NE 10.4 mph - 0.22 in Rain , Snow Light Rain
1:53 PM 35.1 °F 26.9 °F 32.0 °F 89% 29.76 in 1.5 mi East 11.5 mph - 0.08 in Rain Light Rain
2:14 PM 33.8 °F 24.8 °F 32.0 °F 93% 29.73 in 3.0 mi ENE 12.7 mph 20.7 mph 0.01 in Rain Light Rain
2:53 PM 34.0 °F 26.6 °F 32.0 °F 92% 29.74 in 3.0 mi East 9.2 mph 18.4 mph 0.01 in Rain Light Rain
2:57 PM 33.8 °F 24.3 °F 32.0 °F 93% 29.72 in 1.8 mi East 13.8 mph 18.4 mph 0.00 in Rain Light Rain
3:53 PM 35.1 °F 28.6 °F 33.1 °F 92% 29.72 in 1.5 mi East 8.1 mph - 0.00 in Rain Light Rain
4:53 PM 36.0 °F 31.1 °F 34.0 °F 93% 29.69 in 1.5 mi East 5.8 mph - 0.00 in Rain Light Rain
5:30 PM 35.6 °F 30.7 °F 33.8 °F 93% 29.65 in 3.0 mi ENE 5.8 mph - 0.02 in Rain Light Rain
5:37 PM 35.6 °F 29.2 °F 35.6 °F 100% 29.64 in 1.5 mi East 8.1 mph - 0.02 in Rain Light Rain
5:53 PM 36.0 °F 29.0 °F 35.1 °F 97% 29.65 in 1.5 mi East 9.2 mph - 0.04 in Rain Light Rain
6:12 PM 37.4 °F 32.8 °F 35.6 °F 93% 29.62 in 1.5 mi East 5.8 mph - 0.01 in Rain , Thunderstorm Light Thunderstorms and Rain
6:38 PM 35.6 °F 28.0 °F 35.6 °F 100% 29.60 in 1.5 mi East 10.4 mph 16.1 mph 0.10 in Rain Light Rain
6:45 PM 35.6 °F 28.6 °F 35.6 °F 100% 29.59 in 3.0 mi ENE 9.2 mph 16.1 mph 0.10 in Rain Light Rain
6:53 PM 37.0 °F 30.4 °F 35.1 °F 93% 29.61 in 3.0 mi ENE 9.2 mph - 0.10 in Rain Light Rain
7:11 PM 37.4 °F 31.4 °F 35.6 °F 93% 29.58 in 3.0 mi East 8.1 mph - 0.00 in   Overcast
7:51 PM 37.4 °F 32.1 °F 35.6 °F 93% 29.57 in 1.5 mi ENE 6.9 mph - 0.01 in Rain Light Rain
7:53 PM 37.0 °F 31.0 °F 35.1 °F 93% 29.58 in 1.5 mi ENE 8.1 mph - 0.01 in Rain Light Rain
8:53 PM 37.0 °F 33.3 °F 35.1 °F 93% 29.54 in 1.5 mi ENE 4.6 mph - 0.00 in   Overcast
9:13 PM 37.4 °F 32.8 °F 35.6 °F 93% 29.50 in 1.5 mi ENE 5.8 mph - N/A   Overcast
9:53 PM 37.0 °F 33.3 °F 36.0 °F 96% 29.49 in 1.5 mi NE 4.6 mph - N/A   Mostly Cloudy
10:33 PM 39.2 °F 35.9 °F 37.4 °F 93% 29.45 in 1.5 mi ENE 4.6 mph - N/A Thunderstorm Overcast
10:53 PM 37.9 °F - 36.0 °F 93% 29.48 in 1.5 mi Calm Calm - 0.03 in Rain , Thunderstorm Thunderstorms and Rain
11:29 PM 42.8 °F 36.6 °F 39.2 °F 87% 29.42 in 4.0 mi ESE 11.5 mph - 0.13 in   Mostly Cloudy
11:53 PM 45.0 °F 39.7 °F 43.0 °F 93% 29.42 in 5.0 mi SE 10.4 mph - 0.13 in Rain Light Rain